Location: Buckland
(65.9785°N, 161.1281°W)
Time: 23:08:06
(UTC+00:00)

Transit 4A - Pass Details

Date: 05 December 2020
Orbit: 864 x 980 km, 66.8° (Epoch: 20 January)

Event Time Altitude Azimuth Distance (km) Brightness Sun altitude
Rises 22:42:13 0° 285° (WNW) 3,692 10.9 1.5°
Reaches altitude 10° 22:44:48 10° 285° (WNW) 2,743 10.2 1.5°
Maximum altitude 22:51:16 89° 199° (SSW) 986 8.2 1.5°
Drops below altitude 10° 22:57:38 10° 109° (ESE) 2,704 10.5 1.4°
Sets 23:00:10 0° 109° (ESE) 3,635 11.2 1.4°
